カタログに戻る

FENGYUN 1C DEB

運用中SSO
NORAD 31466·DEBRIS·🇨🇳 China

打ち上げ May 10, 1999 から Taiyuan Satellite Launch Center

Loading…

次のパス (今後24時間)

TLE

最新Source: Space-Track

元期: Sep 14, 2026, 02:50 UTC

1 31466U 99025BVE 26257.11861542  .00000116  00000-0  54199-4 0  9995
2 31466  99.1071 199.6119 0297795 244.9315 112.0679 14.18786800  1798

AllMySatでFENGYUN 1C DEBをリアルタイム追跡

Download on the App Store